Regional Weather Roundup
Issued by NWS State College, PA

Home | Current Version | Previous Version | Text Only | Print | Product List | Glossary On
Versions: 1 2 3 4 5 6 7 8 9 10 11 12 13 14 15 16 17 18 19 20 21 22 23 24 25 26 27 28 29 30 31 32 33 34 35 36 37 38 39 40 41 42 43 44 45 46 47 48 49 50
000
ASUS41 KCTP 020410
RWRCTP

REGIONAL WEATHER ROUNDUP
NATIONAL WEATHER SERVICE STATE COLLEGE PA
1200 AM EDT SUN AUG 02 2015

Note: "fair" indicates few or no clouds below 12,000 feet with no
significant weather and/or obstructions to visibility.

* = STATION THAT DOES NOT REPORT PRECIPITATION /E.G. RAIN...SNOW...ETC/
    THUNDER OR FOG.

PAZ002>004-007>009-013>016-020>023-029>032-020500-
WESTERN PENNSYLVANIA

CITY           SKY/WX    TMP DP  RH WIND       PRES   REMARKS
ERIE           PTCLDY    67  56  67 S6        29.89S
MEADVILLE      CLEAR     66  51  58 S6        29.94S
FRANKLIN*      CLEAR     59  48  67 S7        29.96S
NEW CASTLE     FAIR      59  58  96 CALM      29.95S
BEAVER COUNTY  NOT AVBL
BUTLER*        CLEAR     63  57  82 CALM      29.97S
PITTSBURGH INT CLEAR     68  55  63 W5        29.95F
PITTSBURGH     CLEAR     70  51  51 W7        29.95S
INDIANA*       MOCLDY    63  61  94 CALM      30.00S
LATROBE        NOT AVBL
WASHINGTON CO* NOT AVBL
$$

PAZ004>006-010>012-017>019-024>028-033>037-041-042-045-046-049>053-020500-
CENTRAL PENNSYLVANIA

CITY           SKY/WX    TMP DP  RH WIND       PRES   REMARKS
BRADFORD       CLEAR     55  51  86 CALM      29.96S
DUBOIS         CLEAR     61  58  90 CALM      29.96S
CLEARFIELD     CLEAR     61  57  87 CALM      29.96S
JOHNSTOWN      MOCLDY    66  54  65 SW5       30.00S
ALTOONA        MOCLDY    65  59  81 SW3       29.97S
STATE COLLEGE  PTCLDY    63  57  81 CALM      29.95S
WILLIAMSPORT   CLEAR     65  58  78 CALM      29.90R
SELINSGROVE    CLEAR     62  60  93 CALM      29.92R
FT INDIANTOWN  PTCLDY    68  59  73 NW5       29.90S
CAPITAL CITY   CLEAR     70  59  68 W5        29.90S
HARRISBURG     PTCLDY    74  61  63 N3        29.89S
YORK           CLEAR     64  60  87 CALM      29.91S
$$

PAZ038>040-043-044-047-048-054-055-060>062-067>071-020500-
EASTERN PENNSYLVANIA

CITY           SKY/WX    TMP DP  RH WIND       PRES   REMARKS
SCRANTON       CLEAR     62  57  83 SE5       29.91R
MOUNT POCONO   CLEAR     59  54  83 NW7       29.94S
ALLENTOWN      PTCLDY    67  59  75 SW5       29.88S
QUAKERTOWN*    PTCLDY    68  61  77 CALM      29.90S
READING        PTCLDY    70  60  70 CALM      29.88S
LANCASTER      PTCLDY    70  58  65 W3        29.89F
COATESVILLE    PTCLDY    72  57  60 W5        29.90S
POTTSTOWN      CLOUDY    71  60  68 CALM      29.89F
BLUE BELL      NOT AVBL
DOYLESTOWN     CLOUDY    70  59  68 CALM      29.88R
WILLOW GROVE   NOT AVBL
NORTH PHILA    CLEAR     74  57  55 CALM      29.88S
PHILADELPHIA   PTCLDY    81  57  43 NW8       29.88R
$$


USA.gov is the U.S. government's official web portal to all federal, state and local government web resources and services.